{"data":{"norad_id":55591,"epoch":"2026-05-24T21:05:47.480928Z","epoch_age_seconds":81926,"freshness":"FRESH","line1":"1 55591U 23020Y   26144.87902177  .00002546  00000+0  10202-3 0  9994","line2":"2 55591  43.0050 295.0408 0001570 280.3878  79.6797 15.27577391180568","mean_motion":15.27577391,"eccentricity":0.000157,"inclination_deg":43.005,"raan_deg":295.0408,"arg_perigee_deg":280.3878,"mean_anomaly_deg":79.6797,"bstar":0.00010202,"rev_number":18056,"period_min":94.266909714953,"perigee_km":481.97970089175,"apogee_km":484.13411577896,"semimajor_km":6861.1939083354,"source":"CELESTRAK","updated_at":"2026-05-25T13:38:17.839075Z"}}